Flag for U.S.A. Weather past 2 weeks in Detroit, Michigan, U.S.A.

Now
44 °F

Clear.


Feels Like: 44 °F
Forecast: 38 / 67 °F
Wind: No wind

Location: Detroit City Airport


UV Index: 5 (Moderate)

Visibility: 10 mi


Pressure: 30.37 "Hg

Humidity: 53%

Dew point: 28 °F

Location of DetroitLocation

Historic Weather in Detroit

°F

Detroit temperature yesterday

Maximum temperature yesterday: 58 °F (at 1:00 PM)
Minimum temperature yesterday: 41 °F (at 11:53 PM)
Average temperature yesterday: 51 °F

Past Weeks' High & Low Weather Summary

 TemperatureHumidityPressure
High79 °F (Apr 13, 3:53 PM)88% (Apr 15, 12:53 AM)30.49 "Hg (Apr 15, 12:53 AM)
Low24 °F (Apr 16, 4:53 AM)21% (Apr 6, 3:53 PM)29.44 "Hg (Apr 14, 6:53 AM)
Average49 °F53%30.00 "Hg
* Reported Apr 4 9:53 PM — Apr 19 9:53 PM, Detroit, Weather by CustomWeather, © 2014

Note: Actual official high and low records may vary slightly from our data, if they occured in-between our weather recording intervals... More about our weather records

Advertising

Historic Weather Conditions — Data for Previous 24 hours

 ConditionsComfort  
Time TempWeatherWind HumidityBarometerVisibility
9:53 PM
Apr 19
45 °FClear.6 mph49%30.39 "Hg10 mi
8:53 PM48 °FSunny.9 mph48%30.38 "Hg10 mi
7:53 PM50 °FSunny.9 mph46%30.36 "Hg10 mi
6:53 PM54 °FSunny.10 mph37%30.36 "Hg10 mi
5:53 PM56 °FSunny.10 mph34%30.38 "Hg10 mi
4:53 PM56 °FSunny.10 mph36%30.39 "Hg10 mi
3:53 PM55 °FSunny.10 mph35%30.42 "Hg10 mi
2:53 PM54 °FSunny.8 mph35%30.43 "Hg10 mi
1:53 PM52 °FSunny.7 mph40%30.46 "Hg10 mi
12:53 PM51 °FSunny.12 mph38%30.46 "Hg10 mi
11:53 AM50 °FSunny.10 mph43%30.48 "Hg10 mi
10:53 AM47 °FSunny.8 mph52%30.49 "Hg10 mi
9:53 AM44 °FSunny.9 mph60%30.48 "Hg10 mi
8:53 AM40 °FSunny.9 mph65%30.48 "Hg10 mi
7:53 AM37 °FSunny.10 mph70%30.46 "Hg10 mi
6:53 AM34 °FClear.5 mph76%30.45 "Hg10 mi
5:53 AM35 °FClear.5 mph75%30.42 "Hg10 mi
4:53 AM36 °FClear.7 mph70%30.40 "Hg10 mi
3:53 AM37 °FClear.10 mph67%30.40 "Hg10 mi
2:53 AM39 °FPassing clouds.9 mph62%30.40 "Hg10 mi
1:53 AM39 °FPassing clouds.10 mph65%30.40 "Hg10 mi
12:53 AM40 °FPassing clouds.8 mph65%30.39 "Hg10 mi
11:53 PM
Apr 18
41 °FPassing clouds.10 mph65%30.37 "Hg10 mi
Weather by CustomWeather, © 2014

See weather overview